Terminal Aerodrome Forecast
Issued by NWS

Home | Current Version | Previous Version | Text Only | Print | Product List | Glossary Off
Versions: 1 2 3 4 5 6 7 8 9 10 11 12 13

000
FTUS43 KICT 181700
TAFHUT
TAF
KHUT 181739Z 1818/1918 18007KT P6SM BKN200
      TEMPO 1905/1909 28015KT -SHRA SCT040=

USA.gov is the U.S. government's official web portal to all federal, state and local government web resources and services.